This demonstration page uses our WeatherBlox Daily Observations layout. Learn more.

Hourly Observations for October 18, 2017

Temp ( °F °C ) Dew Point ( °F °C ) Humidity (%) Winds ( mph kmh ) Pressure ( in mb ) Visibility ( mi km ) Precip ( " mm )
12:54 am 00:54 Clear 52 11.1 45 7.2 77 77 S 7 11 29.97 1015 10 16.0934 0 0
1:54 am 01:54 Clear 51 10.6 46 7.8 83 83 S 8 13 29.96 1015 10 16.0934 0 0
2:54 am 02:54 Clear 52 11.1 46 7.8 80 80 S 9 15 29.95 1014 10 16.0934 0 0
3:54 am 03:54 Clear 53 11.7 46 7.8 77 77 S 10 17 29.93 1014 10 16.0934 0 0
4:54 am 04:54 Clear 52 11.1 45 7.2 77 77 SSW 3 6 29.93 1014 10 16.0934 0 0
5:54 am 05:54 Clear 49 9.4 44 6.7 83 83 S 7 11 29.95 1014 10 16.0934 0 0
6:54 am 06:54 Clear 50 10 44 6.7 80 80 S 5 7 29.94 1014 10 16.0934 0 0
7:54 am 07:54 Sunny 51 10.6 44 6.7 77 77 SSE 5 7 29.94 1014 10 16.0934 0 0
8:54 am 08:54 Sunny 55 12.8 47 8.3 74 74 S 8 13 29.93 1014 10 16.0934 0 0
9:54 am 09:54 Sunny 58 14.4 46 7.8 65 65 SSW 13 20 29.93 1014 10 16.0934 0 0
10:54 am 10:54 Sunny 63 17.2 47 8.3 56 56 SSW 15 24 29.94 1014 10 16.0934 0 0
11:54 am 11:54 Sunny 68 20 48 8.9 49 49 SSW 12 19 29.91 1013 10 16.0934 0 0
12:54 pm 12:54 Sunny 72 22.2 49 9.4 44 44 S 13 20 29.91 1013 10 16.0934 0 0
1:54 pm 13:54 Sunny 75 23.9 48 8.9 39 39 SW 7 11 29.91 1013 10 16.0934 0 0
2:54 pm 14:54 Sunny 78 25.6 48 8.9 35 35 WSW 10 17 29.91 1013 10 16.0934 0 0
3:54 pm 15:54 Sunny 78 25.6 50 10 37 37 SSW 6 9 29.91 1013 10 16.0934 0 0
4:54 pm 16:54 Sunny 78 25.6 50 10 37 37 SSW 7 11 29.91 1013 10 16.0934 0 0
5:54 pm 17:54 Sunny 77 25 50 10 39 39 NNE 3 6 29.94 1014 10 16.0934 0 0
6:54 pm 18:54 Clear 62 16.7 47 8.3 58 58 NNE 7 11 29.99 1016 10 16.0934 0 0
7:54 pm 19:54 Clear 59 15 45 7.2 60 60 N 7 11 30.01 1016 10 16.0934 0 0
8:54 pm 20:54 Clear 57 13.9 43 6.1 60 60 NNW 6 9 30.04 1017 10 16.0934 0 0
9:54 pm 21:54 Clear 56 13.3 43 6.1 62 62 Calm 30.04 1017 10 16.0934 0 0
10:54 pm 22:54 Clear 53 11.7 44 6.7 72 72 NNW 3 6 30.05 1018 10 16.0934 0 0
11:54 pm 23:54 Clear 47 8.3 43 6.1 86 86 N 5 7 30.05 1018 10 16.0934 0 0

Powered by AerisWeather